Year,Month,Day,Hour,Minute,Value (Times are PST for temperature in C)
2006,06,28,00,00,11.40
2006,06,28,00,01,11.40
2006,06,28,00,02,11.40
2006,06,28,00,03,11.40
2006,06,28,00,04,11.40
2006,06,28,00,05,11.40
2006,06,28,00,06,11.40
2006,06,28,00,07,11.30
2006,06,28,00,08,11.30
2006,06,28,00,09,11.30
2006,06,28,00,10,11.30
2006,06,28,00,11,11.20
2006,06,28,00,12,11.20
2006,06,28,00,13,11.20
2006,06,28,00,14,11.20
2006,06,28,00,15,11.10
2006,06,28,00,16,11.10
2006,06,28,00,17,11.10
2006,06,28,00,18,11.10
2006,06,28,00,19,11.10
2006,06,28,00,20,11.10
2006,06,28,00,21,11.10
2006,06,28,00,22,11.10
2006,06,28,00,23,11.10
2006,06,28,00,24,11.10
2006,06,28,00,25,11.10
2006,06,28,00,26,11.10
2006,06,28,00,27,11.10
2006,06,28,00,28,11.20
2006,06,28,00,29,11.20
2006,06,28,00,30,11.20
2006,06,28,00,31,11.20
2006,06,28,00,32,11.20
2006,06,28,00,33,11.20
2006,06,28,00,34,11.20
2006,06,28,00,35,11.20
2006,06,28,00,36,11.20
2006,06,28,00,37,11.20
2006,06,28,00,38,11.20
2006,06,28,00,39,11.20
2006,06,28,00,40,11.10
2006,06,28,00,41,11.10
2006,06,28,00,42,11.10
2006,06,28,00,43,11.10
2006,06,28,00,44,11.10
2006,06,28,00,45,11.10
2006,06,28,00,46,11.10
2006,06,28,00,47,11.10
2006,06,28,00,48,11.10
2006,06,28,00,49,11.10
2006,06,28,00,50,11.10
2006,06,28,00,51,11.10
2006,06,28,00,52,11.10
2006,06,28,00,53,11.10
2006,06,28,00,54,11.10
2006,06,28,00,55,11.10
2006,06,28,00,56,11.10
2006,06,28,00,57,11.10
2006,06,28,00,58,11.20
2006,06,28,00,59,11.20
2006,06,28,01,00,11.20
2006,06,28,01,01,11.30
2006,06,28,01,02,11.30
2006,06,28,01,03,11.30
2006,06,28,01,04,11.30
2006,06,28,01,05,11.30
2006,06,28,01,06,11.30
2006,06,28,01,07,11.30
2006,06,28,01,08,11.30
2006,06,28,01,09,11.30
2006,06,28,01,10,11.40
2006,06,28,01,11,11.40
2006,06,28,01,12,11.40
2006,06,28,01,13,11.40
2006,06,28,01,14,11.50
2006,06,28,01,15,11.60
2006,06,28,01,16,11.60
2006,06,28,01,17,11.60
2006,06,28,01,18,11.60
2006,06,28,01,19,11.60
2006,06,28,01,20,11.60
2006,06,28,01,21,11.70
2006,06,28,01,22,11.70
2006,06,28,01,23,11.70
2006,06,28,01,24,11.70
2006,06,28,01,25,11.70
2006,06,28,01,26,11.70
2006,06,28,01,27,11.80
2006,06,28,01,28,11.80
2006,06,28,01,29,11.80
2006,06,28,01,30,11.80
2006,06,28,01,31,11.80
2006,06,28,01,32,11.80
2006,06,28,01,33,11.80
2006,06,28,01,34,11.80
2006,06,28,01,35,11.80
2006,06,28,01,36,11.90
2006,06,28,01,37,11.90
2006,06,28,01,38,11.90
2006,06,28,01,39,11.90
2006,06,28,01,40,12.00
2006,06,28,01,41,12.00
2006,06,28,01,42,12.00
2006,06,28,01,43,12.10
2006,06,28,01,44,12.10
2006,06,28,01,45,12.10
2006,06,28,01,46,12.10
2006,06,28,01,47,12.10
2006,06,28,01,48,12.10
2006,06,28,01,49,12.10
2006,06,28,01,50,12.10
2006,06,28,01,51,12.10
2006,06,28,01,52,12.10
2006,06,28,01,53,12.10
2006,06,28,01,54,12.00
2006,06,28,01,55,12.00
2006,06,28,01,56,12.00
2006,06,28,01,57,12.00
2006,06,28,01,58,11.90
2006,06,28,01,59,11.90
2006,06,28,02,00,11.90
2006,06,28,02,01,11.90
2006,06,28,02,02,11.90
2006,06,28,02,03,11.90
2006,06,28,02,04,11.90
2006,06,28,02,05,11.90
2006,06,28,02,06,11.90
2006,06,28,02,07,11.90
2006,06,28,02,08,11.90
2006,06,28,02,09,11.90
2006,06,28,02,10,11.90
2006,06,28,02,11,11.90
2006,06,28,02,12,11.80
2006,06,28,02,13,11.80
2006,06,28,02,14,11.80
2006,06,28,02,15,11.70
2006,06,28,02,16,11.70
2006,06,28,02,17,11.60
2006,06,28,02,18,11.60
2006,06,28,02,19,11.60
2006,06,28,02,20,11.60
2006,06,28,02,21,11.40
2006,06,28,02,22,11.40
2006,06,28,02,23,11.40
2006,06,28,02,24,11.40
2006,06,28,02,25,11.40
2006,06,28,02,26,11.40
2006,06,28,02,27,11.30
2006,06,28,02,28,11.30
2006,06,28,02,29,11.30
2006,06,28,02,30,11.30
2006,06,28,02,31,11.30
2006,06,28,02,32,11.20
2006,06,28,02,33,11.20
2006,06,28,02,34,11.20
2006,06,28,02,35,11.20
2006,06,28,02,36,11.20
2006,06,28,02,37,11.20
2006,06,28,02,38,11.20
2006,06,28,02,39,11.20
2006,06,28,02,40,11.20
2006,06,28,02,41,11.10
2006,06,28,02,42,11.10
2006,06,28,02,43,11.10
2006,06,28,02,44,11.10
2006,06,28,02,45,11.10
2006,06,28,02,46,11.10
2006,06,28,02,47,11.10
2006,06,28,02,48,11.10
2006,06,28,02,49,11.10
2006,06,28,02,50,11.10
2006,06,28,02,51,11.10
2006,06,28,02,52,11.00
2006,06,28,02,53,10.90
2006,06,28,02,54,10.90
2006,06,28,02,55,10.90
2006,06,28,02,56,10.90
2006,06,28,02,57,10.90
2006,06,28,02,58,10.90
2006,06,28,02,59,10.90
2006,06,28,03,00,10.80
2006,06,28,03,01,10.80
2006,06,28,03,02,10.80
2006,06,28,03,03,10.80
2006,06,28,03,04,10.70
2006,06,28,03,05,10.70
2006,06,28,03,06,10.70
2006,06,28,03,07,10.70
2006,06,28,03,08,10.60
2006,06,28,03,09,10.60
2006,06,28,03,10,10.60
2006,06,28,03,11,10.60
2006,06,28,03,12,10.60
2006,06,28,03,13,10.60
2006,06,28,03,14,10.60
2006,06,28,03,15,10.60
2006,06,28,03,16,10.60
2006,06,28,03,17,10.60
2006,06,28,03,18,10.60
2006,06,28,03,19,10.60
2006,06,28,03,20,10.60
2006,06,28,03,21,10.60
2006,06,28,03,22,10.60
2006,06,28,03,23,10.60
2006,06,28,03,24,10.50
2006,06,28,03,25,10.40
2006,06,28,03,26,10.40
2006,06,28,03,27,10.40
2006,06,28,03,28,10.40
2006,06,28,03,29,10.30
2006,06,28,03,30,10.30
2006,06,28,03,31,10.20
2006,06,28,03,32,10.20
2006,06,28,03,33,10.10
2006,06,28,03,34,10.10
2006,06,28,03,35,10.00
2006,06,28,03,36,9.90
2006,06,28,03,37,9.90
2006,06,28,03,38,9.90
2006,06,28,03,39,9.80
2006,06,28,03,40,9.70
2006,06,28,03,41,9.70
2006,06,28,03,42,9.70
2006,06,28,03,43,9.70
2006,06,28,03,44,9.60
2006,06,28,03,45,9.50
2006,06,28,03,46,9.50
2006,06,28,03,47,9.40
2006,06,28,03,48,9.40
2006,06,28,03,49,9.40
2006,06,28,03,50,9.30
2006,06,28,03,51,9.30
2006,06,28,03,52,9.20
2006,06,28,03,53,9.20
2006,06,28,03,54,9.20
2006,06,28,03,55,9.20
2006,06,28,03,56,9.20
2006,06,28,03,57,9.10
2006,06,28,03,58,9.10
2006,06,28,03,59,9.10
2006,06,28,04,00,9.00
2006,06,28,04,01,9.00
2006,06,28,04,02,9.00
2006,06,28,04,03,9.00
2006,06,28,04,04,9.00
2006,06,28,04,05,9.00
2006,06,28,04,06,8.90
2006,06,28,04,07,8.90
2006,06,28,04,08,8.90
2006,06,28,04,09,8.90
2006,06,28,04,10,8.90
2006,06,28,04,11,8.90
2006,06,28,04,12,8.80
2006,06,28,04,13,8.80
2006,06,28,04,14,8.80
2006,06,28,04,15,8.80
2006,06,28,04,16,8.70
2006,06,28,04,17,8.70
2006,06,28,04,18,8.70
2006,06,28,04,19,8.70
2006,06,28,04,20,8.70
2006,06,28,04,21,8.70
2006,06,28,04,22,8.70
2006,06,28,04,23,8.70
2006,06,28,04,24,8.70
2006,06,28,04,25,8.70
2006,06,28,04,26,8.70
2006,06,28,04,27,8.70
2006,06,28,04,28,8.70
2006,06,28,04,29,8.60
2006,06,28,04,30,8.60
2006,06,28,04,31,8.60
2006,06,28,04,32,8.60
2006,06,28,04,33,8.60
2006,06,28,04,34,8.50
2006,06,28,04,35,8.50
2006,06,28,04,36,8.50
2006,06,28,04,37,8.50
2006,06,28,04,38,8.50
2006,06,28,04,39,8.50
2006,06,28,04,40,8.50
2006,06,28,04,41,8.50
2006,06,28,04,42,8.50
2006,06,28,04,43,8.50
2006,06,28,04,44,8.50
2006,06,28,04,45,8.50
2006,06,28,04,46,8.40
2006,06,28,04,47,8.40
2006,06,28,04,48,8.40
2006,06,28,04,49,8.40
2006,06,28,04,50,8.40
2006,06,28,04,51,8.40
2006,06,28,04,52,8.40
2006,06,28,04,53,8.40
2006,06,28,04,54,8.40
2006,06,28,04,55,8.40
2006,06,28,04,56,8.40
2006,06,28,04,57,8.40
2006,06,28,04,58,8.40
2006,06,28,04,59,8.40
2006,06,28,05,00,8.40
2006,06,28,05,01,8.30
2006,06,28,05,02,8.30
2006,06,28,05,03,8.30
2006,06,28,05,04,8.30
2006,06,28,05,05,8.30
2006,06,28,05,06,8.30
2006,06,28,05,07,8.30
2006,06,28,05,08,8.30
2006,06,28,05,09,8.30
2006,06,28,05,10,8.20
2006,06,28,05,11,8.20
2006,06,28,05,12,8.20
2006,06,28,05,13,8.20
2006,06,28,05,14,8.20
2006,06,28,05,15,8.20
2006,06,28,05,16,8.20
2006,06,28,05,17,8.20
2006,06,28,05,18,8.20
2006,06,28,05,19,8.20
2006,06,28,05,20,8.20
2006,06,28,05,21,8.20
2006,06,28,05,22,8.20
2006,06,28,05,23,8.20
2006,06,28,05,24,8.20
2006,06,28,05,25,8.20
2006,06,28,05,26,8.20
2006,06,28,05,27,8.20
2006,06,28,05,28,8.20
2006,06,28,05,29,8.20
2006,06,28,05,30,8.20
2006,06,28,05,31,8.30
2006,06,28,05,32,8.30
2006,06,28,05,33,8.30
2006,06,28,05,34,8.30
2006,06,28,05,35,8.30
2006,06,28,05,36,8.30
2006,06,28,05,37,8.30
2006,06,28,05,38,8.40
2006,06,28,05,39,8.40
2006,06,28,05,40,8.40
2006,06,28,05,41,8.40
2006,06,28,05,42,8.50
2006,06,28,05,43,8.50
2006,06,28,05,44,8.50
2006,06,28,05,45,8.50
2006,06,28,05,46,8.50
2006,06,28,05,47,8.50
2006,06,28,05,48,8.60
2006,06,28,05,49,8.60
2006,06,28,05,50,8.60
2006,06,28,05,51,8.70
2006,06,28,05,52,8.70
2006,06,28,05,53,8.70
2006,06,28,05,54,8.70
2006,06,28,05,55,8.70
2006,06,28,05,56,8.80
2006,06,28,05,57,8.80
2006,06,28,05,58,8.80
2006,06,28,05,59,8.90
2006,06,28,06,00,8.90
2006,06,28,06,01,8.90
2006,06,28,06,02,8.90
2006,06,28,06,03,9.10
2006,06,28,06,04,9.10
2006,06,28,06,05,9.20
2006,06,28,06,06,9.20
2006,06,28,06,07,9.30
2006,06,28,06,08,9.30
2006,06,28,06,09,9.40
2006,06,28,06,10,9.40
2006,06,28,06,11,9.50
2006,06,28,06,12,9.50
2006,06,28,06,13,9.60
2006,06,28,06,14,9.70
2006,06,28,06,15,9.70
2006,06,28,06,16,9.80
2006,06,28,06,17,9.90
2006,06,28,06,18,9.90
2006,06,28,06,19,10.00
2006,06,28,06,20,10.10
2006,06,28,06,21,10.10
2006,06,28,06,22,10.20
2006,06,28,06,23,10.20
2006,06,28,06,24,10.30
2006,06,28,06,25,10.40
2006,06,28,06,26,10.40
2006,06,28,06,27,10.50
2006,06,28,06,28,10.60
2006,06,28,06,29,10.60
2006,06,28,06,30,10.60
2006,06,28,06,31,10.70
2006,06,28,06,32,10.70
2006,06,28,06,33,10.80
2006,06,28,06,34,10.80
2006,06,28,06,35,10.90
2006,06,28,06,36,10.90
2006,06,28,06,37,10.90
2006,06,28,06,38,10.90
2006,06,28,06,39,10.90
2006,06,28,06,40,10.90
2006,06,28,06,41,11.00
2006,06,28,06,42,11.10
2006,06,28,06,43,11.00
2006,06,28,06,44,10.90
2006,06,28,06,45,10.90
2006,06,28,06,46,10.90
2006,06,28,06,47,10.90
2006,06,28,06,48,10.90
2006,06,28,06,49,10.80
2006,06,28,06,50,10.80
2006,06,28,06,51,10.80
2006,06,28,06,52,10.80
2006,06,28,06,53,10.80
2006,06,28,06,54,10.80
2006,06,28,06,55,10.80
2006,06,28,06,56,10.80
2006,06,28,06,57,10.90
2006,06,28,06,58,10.90
2006,06,28,06,59,10.90
2006,06,28,07,00,11.00
2006,06,28,07,01,11.10
2006,06,28,07,02,11.10
2006,06,28,07,03,11.20
2006,06,28,07,04,11.30
2006,06,28,07,05,11.40
2006,06,28,07,06,11.40
2006,06,28,07,07,11.60
2006,06,28,07,08,11.70
2006,06,28,07,09,11.80
2006,06,28,07,10,11.90
2006,06,28,07,11,12.00
2006,06,28,07,12,12.10
2006,06,28,07,13,12.20
2006,06,28,07,14,12.40
2006,06,28,07,15,12.50
2006,06,28,07,16,12.60
2006,06,28,07,17,12.70
2006,06,28,07,18,12.80
2006,06,28,07,19,12.90
2006,06,28,07,20,13.00
2006,06,28,07,21,13.20
2006,06,28,07,22,13.30
2006,06,28,07,23,13.40
2006,06,28,07,24,13.50
2006,06,28,07,25,13.50
2006,06,28,07,26,13.60
2006,06,28,07,27,13.70
2006,06,28,07,28,13.70
2006,06,28,07,29,13.70
2006,06,28,07,30,13.70
2006,06,28,07,31,13.70
2006,06,28,07,32,13.70
2006,06,28,07,33,13.80
2006,06,28,07,34,13.80
2006,06,28,07,35,13.90
2006,06,28,07,36,14.00
2006,06,28,07,37,14.10
2006,06,28,07,38,14.10
2006,06,28,07,39,14.20
2006,06,28,07,40,14.20
2006,06,28,07,41,14.20
2006,06,28,07,42,14.20
2006,06,28,07,43,14.20
2006,06,28,07,44,14.30
2006,06,28,07,45,14.30
2006,06,28,07,46,14.40
2006,06,28,07,47,14.40
2006,06,28,07,48,14.40
2006,06,28,07,49,14.40
2006,06,28,07,50,14.40
2006,06,28,07,51,14.40
2006,06,28,07,52,14.40
2006,06,28,07,53,14.40
2006,06,28,07,54,14.40
2006,06,28,07,55,14.40
2006,06,28,07,56,14.40
2006,06,28,07,57,14.50
2006,06,28,07,58,14.50
2006,06,28,07,59,14.50
2006,06,28,08,00,14.40
2006,06,28,08,01,14.40
2006,06,28,08,02,14.40
2006,06,28,08,03,14.40
2006,06,28,08,04,14.40
2006,06,28,08,05,14.40
2006,06,28,08,06,14.40
2006,06,28,08,07,14.40
2006,06,28,08,08,14.50
2006,06,28,08,09,14.60
2006,06,28,08,10,14.70
2006,06,28,08,11,14.70
2006,06,28,08,12,14.70
2006,06,28,08,13,14.80
2006,06,28,08,14,14.80
2006,06,28,08,15,14.80
2006,06,28,08,16,14.80
2006,06,28,08,17,14.90
2006,06,28,08,18,14.90
2006,06,28,08,19,14.90
2006,06,28,08,20,14.90
2006,06,28,08,21,15.00
2006,06,28,08,22,15.00
2006,06,28,08,23,15.00
2006,06,28,08,24,15.00
2006,06,28,08,25,15.10
2006,06,28,08,26,15.10
2006,06,28,08,27,15.00
2006,06,28,08,28,14.90
2006,06,28,08,29,14.80
2006,06,28,08,30,14.80
2006,06,28,08,31,14.80
2006,06,28,08,32,14.90
2006,06,28,08,33,15.00
2006,06,28,08,34,15.00
2006,06,28,08,35,15.10
2006,06,28,08,36,15.10
2006,06,28,08,37,15.10
2006,06,28,08,38,15.20
2006,06,28,08,39,15.20
2006,06,28,08,40,15.20
2006,06,28,08,41,15.20
2006,06,28,08,42,15.30
2006,06,28,08,43,15.30
2006,06,28,08,44,15.30
2006,06,28,08,45,15.40
2006,06,28,08,46,15.40
2006,06,28,08,47,15.40
2006,06,28,08,48,15.40
2006,06,28,08,49,15.30
2006,06,28,08,50,15.30
2006,06,28,08,51,15.30
2006,06,28,08,52,15.30
2006,06,28,08,53,15.40
2006,06,28,08,54,15.50
2006,06,28,08,55,15.50
2006,06,28,08,56,15.60
2006,06,28,08,57,15.70
2006,06,28,08,58,15.80
2006,06,28,08,59,15.80
2006,06,28,09,00,15.80
2006,06,28,09,01,15.80
2006,06,28,09,02,15.80
2006,06,28,09,03,15.90
2006,06,28,09,04,15.90
2006,06,28,09,05,15.90
2006,06,28,09,06,16.00
2006,06,28,09,07,16.10
2006,06,28,09,08,16.10
2006,06,28,09,09,16.10
2006,06,28,09,10,16.10
2006,06,28,09,11,16.20
2006,06,28,09,12,16.30
2006,06,28,09,13,16.40
2006,06,28,09,14,16.50
2006,06,28,09,15,16.70
2006,06,28,09,16,16.70
2006,06,28,09,17,16.70
2006,06,28,09,18,16.60
2006,06,28,09,19,16.50
2006,06,28,09,20,16.60
2006,06,28,09,21,16.60
2006,06,28,09,22,16.60
2006,06,28,09,23,16.60
2006,06,28,09,24,16.40
2006,06,28,09,25,16.40
2006,06,28,09,26,16.40
2006,06,28,09,27,16.50
2006,06,28,09,28,16.60
2006,06,28,09,29,16.70
2006,06,28,09,30,16.70
2006,06,28,09,31,16.80
2006,06,28,09,32,16.80
2006,06,28,09,33,16.90
2006,06,28,09,34,16.90
2006,06,28,09,35,17.00
2006,06,28,09,36,17.00
2006,06,28,09,37,17.10
2006,06,28,09,38,17.20
2006,06,28,09,39,17.30
2006,06,28,09,40,17.30
2006,06,28,09,41,17.30
2006,06,28,09,42,17.30
2006,06,28,09,43,17.30
2006,06,28,09,44,17.40
2006,06,28,09,45,17.40
2006,06,28,09,46,17.50
2006,06,28,09,47,17.60
2006,06,28,09,48,17.70
2006,06,28,09,49,17.70
2006,06,28,09,50,17.80
2006,06,28,09,51,17.80
2006,06,28,09,52,17.90
2006,06,28,09,53,17.90
2006,06,28,09,54,17.90
2006,06,28,09,55,17.90
2006,06,28,09,56,17.80
2006,06,28,09,57,17.80
2006,06,28,09,58,17.80
2006,06,28,09,59,17.90
2006,06,28,10,00,17.90
2006,06,28,10,01,17.90
2006,06,28,10,02,17.90
2006,06,28,10,03,18.00
2006,06,28,10,04,18.10
2006,06,28,10,05,18.00
2006,06,28,10,06,17.90
2006,06,28,10,07,17.80
2006,06,28,10,08,17.60
2006,06,28,10,09,17.50
2006,06,28,10,10,17.50
2006,06,28,10,11,17.60
2006,06,28,10,12,17.50
2006,06,28,10,13,17.50
2006,06,28,10,14,17.60
2006,06,28,10,15,17.70
2006,06,28,10,16,17.70
2006,06,28,10,17,17.70
2006,06,28,10,18,17.80
2006,06,28,10,19,17.90
2006,06,28,10,20,17.80
2006,06,28,10,21,17.50
2006,06,28,10,22,17.30
2006,06,28,10,23,17.30
2006,06,28,10,24,17.20
2006,06,28,10,25,17.20
2006,06,28,10,26,17.30
2006,06,28,10,27,17.30
2006,06,28,10,28,17.30
2006,06,28,10,29,17.30
2006,06,28,10,30,17.30
2006,06,28,10,31,17.30
2006,06,28,10,32,17.30
2006,06,28,10,33,17.40
2006,06,28,10,34,17.40
2006,06,28,10,35,17.40
2006,06,28,10,36,17.30
2006,06,28,10,37,17.30
2006,06,28,10,38,17.50
2006,06,28,10,39,17.50
2006,06,28,10,40,17.50
2006,06,28,10,41,17.50
2006,06,28,10,42,17.50
2006,06,28,10,43,17.60
2006,06,28,10,44,17.50
2006,06,28,10,45,17.50
2006,06,28,10,46,17.50
2006,06,28,10,47,17.60
2006,06,28,10,48,17.70
2006,06,28,10,49,17.80
2006,06,28,10,50,17.80
2006,06,28,10,51,17.80
2006,06,28,10,52,17.90
2006,06,28,10,53,17.90
2006,06,28,10,54,17.70
2006,06,28,10,55,17.60
2006,06,28,10,56,17.50
2006,06,28,10,57,17.40
2006,06,28,10,58,17.50
2006,06,28,10,59,17.50
2006,06,28,11,00,17.40
2006,06,28,11,01,17.40
2006,06,28,11,02,17.50
2006,06,28,11,03,17.50
2006,06,28,11,04,17.50
2006,06,28,11,05,17.40
2006,06,28,11,06,17.30
2006,06,28,11,07,17.30
2006,06,28,11,08,17.40
2006,06,28,11,09,17.40
2006,06,28,11,10,17.30
2006,06,28,11,11,17.40
2006,06,28,11,12,17.60
2006,06,28,11,13,17.60
2006,06,28,11,14,17.80
2006,06,28,11,15,17.90
2006,06,28,11,16,18.00
2006,06,28,11,17,18.10
2006,06,28,11,18,18.20
2006,06,28,11,19,18.20
2006,06,28,11,20,18.20
2006,06,28,11,21,18.30
2006,06,28,11,22,18.20
2006,06,28,11,23,18.20
2006,06,28,11,24,18.20
2006,06,28,11,25,18.10
2006,06,28,11,26,18.00
2006,06,28,11,27,17.90
2006,06,28,11,28,17.90
2006,06,28,11,29,18.00
2006,06,28,11,30,18.10
2006,06,28,11,31,18.20
2006,06,28,11,32,18.30
2006,06,28,11,33,18.30
2006,06,28,11,34,18.30
2006,06,28,11,35,18.40
2006,06,28,11,36,18.50
2006,06,28,11,37,18.60
2006,06,28,11,38,18.70
2006,06,28,11,39,18.70
2006,06,28,11,40,18.70
2006,06,28,11,41,18.70
2006,06,28,11,42,18.60
2006,06,28,11,43,18.40
2006,06,28,11,44,18.30
2006,06,28,11,45,18.10
2006,06,28,11,46,18.10
2006,06,28,11,47,18.00
2006,06,28,11,48,18.00
2006,06,28,11,49,18.20
2006,06,28,11,50,18.20
2006,06,28,11,51,18.00
2006,06,28,11,52,17.90
2006,06,28,11,53,17.70
2006,06,28,11,54,17.70
2006,06,28,11,55,17.80
2006,06,28,11,56,17.70
2006,06,28,11,57,17.80
2006,06,28,11,58,17.70
2006,06,28,11,59,17.60
2006,06,28,12,00,17.60
2006,06,28,12,01,17.70
2006,06,28,12,02,17.70
2006,06,28,12,03,17.60
2006,06,28,12,04,17.50
2006,06,28,12,05,17.50
2006,06,28,12,06,17.40
2006,06,28,12,07,17.40
2006,06,28,12,08,17.40
2006,06,28,12,09,17.40
2006,06,28,12,10,17.20
2006,06,28,12,11,17.20
2006,06,28,12,12,17.20
2006,06,28,12,13,17.30
2006,06,28,12,14,17.30
2006,06,28,12,15,17.30
2006,06,28,12,16,17.10
2006,06,28,12,17,17.00
2006,06,28,12,18,17.00
2006,06,28,12,19,17.20
2006,06,28,12,20,17.40
2006,06,28,12,21,17.50
2006,06,28,12,22,17.50
2006,06,28,12,23,17.60
2006,06,28,12,24,17.40
2006,06,28,12,25,17.30
2006,06,28,12,26,17.30
2006,06,28,12,27,17.30
2006,06,28,12,28,17.40
2006,06,28,12,29,17.40
2006,06,28,12,30,17.30
2006,06,28,12,31,17.20
2006,06,28,12,32,17.20
2006,06,28,12,33,17.30
2006,06,28,12,34,17.40
2006,06,28,12,35,17.50
2006,06,28,12,36,17.40
2006,06,28,12,37,17.40
2006,06,28,12,38,17.50
2006,06,28,12,39,17.60
2006,06,28,12,40,17.70
2006,06,28,12,41,17.80
2006,06,28,12,42,17.80
2006,06,28,12,43,17.90
2006,06,28,12,44,17.90
2006,06,28,12,45,18.20
2006,06,28,12,46,18.20
2006,06,28,12,47,18.20
2006,06,28,12,48,18.00
2006,06,28,12,49,17.90
2006,06,28,12,50,17.80
2006,06,28,12,51,17.70
2006,06,28,12,52,17.70
2006,06,28,12,53,17.70
2006,06,28,12,54,17.60
2006,06,28,12,55,17.70
2006,06,28,12,56,17.70
2006,06,28,12,57,17.70
2006,06,28,12,58,17.60
2006,06,28,12,59,17.40
2006,06,28,13,00,17.40
2006,06,28,13,01,17.40
2006,06,28,13,02,17.50
2006,06,28,13,03,17.70
2006,06,28,13,04,17.90
2006,06,28,13,05,18.00
2006,06,28,13,06,18.20
2006,06,28,13,07,18.30
2006,06,28,13,08,18.30
2006,06,28,13,09,18.30
2006,06,28,13,10,18.40
2006,06,28,13,11,18.40
2006,06,28,13,12,18.30
2006,06,28,13,13,18.30
2006,06,28,13,14,18.30
2006,06,28,13,15,18.20
2006,06,28,13,16,18.30
2006,06,28,13,17,18.30
2006,06,28,13,18,18.30
2006,06,28,13,19,18.40
2006,06,28,13,20,18.50
2006,06,28,13,21,18.50
2006,06,28,13,22,18.40
2006,06,28,13,23,18.20
2006,06,28,13,24,18.20
2006,06,28,13,25,18.20
2006,06,28,13,26,18.20
2006,06,28,13,27,18.20
2006,06,28,13,28,18.20
2006,06,28,13,29,18.30
2006,06,28,13,30,18.40
2006,06,28,13,31,18.40
2006,06,28,13,32,18.30
2006,06,28,13,33,18.20
2006,06,28,13,34,18.00
2006,06,28,13,35,18.00
2006,06,28,13,36,17.80
2006,06,28,13,37,17.70
2006,06,28,13,38,17.90
2006,06,28,13,39,17.90
2006,06,28,13,40,18.10
2006,06,28,13,41,18.30
2006,06,28,13,42,18.30
2006,06,28,13,43,18.30
2006,06,28,13,44,18.30
2006,06,28,13,45,18.20
2006,06,28,13,46,18.20
2006,06,28,13,47,18.20
2006,06,28,13,48,18.30
2006,06,28,13,49,18.30
2006,06,28,13,50,18.30
2006,06,28,13,51,18.30
2006,06,28,13,52,18.30
2006,06,28,13,53,18.30
2006,06,28,13,54,18.30
2006,06,28,13,55,18.20
2006,06,28,13,56,18.20
2006,06,28,13,57,18.30
2006,06,28,13,58,18.60
2006,06,28,13,59,18.60
2006,06,28,14,00,18.80
2006,06,28,14,01,18.70
2006,06,28,14,02,18.60
2006,06,28,14,03,18.40
2006,06,28,14,04,18.30
2006,06,28,14,05,18.10
2006,06,28,14,06,17.90
2006,06,28,14,07,17.90
2006,06,28,14,08,17.90
2006,06,28,14,09,18.10
2006,06,28,14,10,18.40
2006,06,28,14,11,18.50
2006,06,28,14,12,18.50
2006,06,28,14,13,18.60
2006,06,28,14,14,18.70
2006,06,28,14,15,18.90
2006,06,28,14,16,18.90
2006,06,28,14,17,18.90
2006,06,28,14,18,19.00
2006,06,28,14,19,19.00
2006,06,28,14,20,18.90
2006,06,28,14,21,18.70
2006,06,28,14,22,18.60
2006,06,28,14,23,18.50
2006,06,28,14,24,18.30
2006,06,28,14,25,18.20
2006,06,28,14,26,18.10
2006,06,28,14,27,17.90
2006,06,28,14,28,18.00
2006,06,28,14,29,18.10
2006,06,28,14,30,18.20
2006,06,28,14,31,18.20
2006,06,28,14,32,18.20
2006,06,28,14,33,18.20
2006,06,28,14,34,18.20
2006,06,28,14,35,18.20
2006,06,28,14,36,18.20
2006,06,28,14,37,18.20
2006,06,28,14,38,18.20
2006,06,28,14,39,18.20
2006,06,28,14,40,18.20
2006,06,28,14,41,18.20
2006,06,28,14,42,18.30
2006,06,28,14,43,18.30
2006,06,28,14,44,18.50
2006,06,28,14,45,18.60
2006,06,28,14,46,18.50
2006,06,28,14,47,18.60
2006,06,28,14,48,18.80
2006,06,28,14,49,19.00
2006,06,28,14,50,19.20
2006,06,28,14,51,19.40
2006,06,28,14,52,19.50
2006,06,28,14,53,19.50
2006,06,28,14,54,19.40
2006,06,28,14,55,19.40
2006,06,28,14,56,19.40
2006,06,28,14,57,19.50
2006,06,28,14,58,19.60
2006,06,28,14,59,19.70
2006,06,28,15,00,19.80
2006,06,28,15,01,19.70
2006,06,28,15,02,19.70
2006,06,28,15,03,19.70
2006,06,28,15,04,19.60
2006,06,28,15,05,19.50
2006,06,28,15,06,19.50
2006,06,28,15,07,19.40
2006,06,28,15,08,19.50
2006,06,28,15,09,19.60
2006,06,28,15,10,19.70
2006,06,28,15,11,19.70
2006,06,28,15,12,19.90
2006,06,28,15,13,20.00
2006,06,28,15,14,20.20
2006,06,28,15,15,20.20
2006,06,28,15,16,20.10
2006,06,28,15,17,20.10
2006,06,28,15,18,20.10
2006,06,28,15,19,20.10
2006,06,28,15,20,20.00
2006,06,28,15,21,19.90
2006,06,28,15,22,19.90
2006,06,28,15,23,20.00
2006,06,28,15,24,20.10
2006,06,28,15,25,20.00
2006,06,28,15,26,19.90
2006,06,28,15,27,19.90
2006,06,28,15,28,20.00
2006,06,28,15,29,20.10
2006,06,28,15,30,19.90
2006,06,28,15,31,19.60
2006,06,28,15,32,19.60
2006,06,28,15,33,19.70
2006,06,28,15,34,19.80
2006,06,28,15,35,19.90
2006,06,28,15,36,20.00
2006,06,28,15,37,20.10
2006,06,28,15,38,20.20
2006,06,28,15,39,20.10
2006,06,28,15,40,20.10
2006,06,28,15,41,20.10
2006,06,28,15,42,20.10
2006,06,28,15,43,20.20
2006,06,28,15,44,20.10
2006,06,28,15,45,19.90
2006,06,28,15,46,19.70
2006,06,28,15,47,19.60
2006,06,28,15,48,19.60
2006,06,28,15,49,19.60
2006,06,28,15,50,19.80
2006,06,28,15,51,20.00
2006,06,28,15,52,20.00
2006,06,28,15,53,20.10
2006,06,28,15,54,20.10
2006,06,28,15,55,20.10
2006,06,28,15,56,19.90
2006,06,28,15,57,19.90
2006,06,28,15,58,20.00
2006,06,28,15,59,20.20
2006,06,28,16,00,20.20
2006,06,28,16,01,20.20
2006,06,28,16,02,20.20
2006,06,28,16,03,20.10
2006,06,28,16,04,20.20
2006,06,28,16,05,20.20
2006,06,28,16,06,20.30
2006,06,28,16,07,20.40
2006,06,28,16,08,20.50
2006,06,28,16,09,20.50
2006,06,28,16,10,20.60
2006,06,28,16,11,20.70
2006,06,28,16,12,20.70
2006,06,28,16,13,20.70
2006,06,28,16,14,20.70
2006,06,28,16,15,20.80
2006,06,28,16,16,20.90
2006,06,28,16,17,21.00
2006,06,28,16,18,21.10
2006,06,28,16,19,21.10
2006,06,28,16,20,21.00
2006,06,28,16,21,21.00
2006,06,28,16,22,21.00
2006,06,28,16,23,21.00
2006,06,28,16,24,21.10
2006,06,28,16,25,21.00
2006,06,28,16,26,21.00
2006,06,28,16,27,21.00
2006,06,28,16,28,21.00
2006,06,28,16,29,21.00
2006,06,28,16,30,21.00
2006,06,28,16,31,21.10
2006,06,28,16,32,21.10
2006,06,28,16,33,21.00
2006,06,28,16,34,20.90
2006,06,28,16,35,20.80
2006,06,28,16,36,20.80
2006,06,28,16,37,20.90
2006,06,28,16,38,20.80
2006,06,28,16,39,20.80
2006,06,28,16,40,20.70
2006,06,28,16,41,20.60
2006,06,28,16,42,20.50
2006,06,28,16,43,20.50
2006,06,28,16,44,20.50
2006,06,28,16,45,20.50
2006,06,28,16,46,20.50
2006,06,28,16,47,20.60
2006,06,28,16,48,20.70
2006,06,28,16,49,20.70
2006,06,28,16,50,20.50
2006,06,28,16,51,20.40
2006,06,28,16,52,20.40
2006,06,28,16,53,20.40
2006,06,28,16,54,20.50
2006,06,28,16,55,20.50
2006,06,28,16,56,20.40
2006,06,28,16,57,20.40
2006,06,28,16,58,20.40
2006,06,28,16,59,20.40
2006,06,28,17,00,20.50
2006,06,28,17,01,20.50
2006,06,28,17,02,20.50
2006,06,28,17,03,20.50
2006,06,28,17,04,20.50
2006,06,28,17,05,20.60
2006,06,28,17,06,20.70
2006,06,28,17,07,20.70
2006,06,28,17,08,20.80
2006,06,28,17,09,20.90
2006,06,28,17,10,20.90
2006,06,28,17,11,21.00
2006,06,28,17,12,21.00
2006,06,28,17,13,21.10
2006,06,28,17,14,21.10
2006,06,28,17,15,21.10
2006,06,28,17,16,21.20
2006,06,28,17,17,21.30
2006,06,28,17,18,21.30
2006,06,28,17,19,21.30
2006,06,28,17,20,21.30
2006,06,28,17,21,21.40
2006,06,28,17,22,21.40
2006,06,28,17,23,21.30
2006,06,28,17,24,21.30
2006,06,28,17,25,21.10
2006,06,28,17,26,21.10